When you browse on this site, cookies collect data to enhance your experience and personalize the content and advertising you see.
Visit our Privacy Policy to learn more. By continuing to use the site, you agree to this use of cookies and data.
  • In United Kingdom
  • List of Countries
  • For 7 days
  • Water Temperature
  • Weather Map
  • Weather Widgets
  • user-avatar
    Login

    Hourly Weather Ischgl

    Today, 8 December, Sunday

    Time Temperature Precipitation Wind Pressure Humidity
    00:00 -9°C° 0 mm 1 mps 570 mmHg 81%
    01:00 -10°C° 0 mm 2 mps 570 mmHg 77%
    02:00 -10°C° 0 mm 2 mps 569 mmHg 67%
    03:00 -10°C° 0 mm 2 mps 569 mmHg 58%
    04:00 -9°C° 0 mm 2 mps 569 mmHg 49%
    05:00 -9°C° 0 mm 2 mps 569 mmHg 44%
    06:00 -8°C° 0 mm 2 mps 570 mmHg 38%
    07:00 -7°C° 0 mm 2 mps 570 mmHg 34%
    08:00 -6°C° 0 mm 2 mps 570 mmHg 38%
    09:00 -5°C° 0 mm 2 mps 571 mmHg 42%
    10:00 -4°C° 0 mm 2 mps 571 mmHg 46%
    11:00 -3°C° 0 mm 2 mps 571 mmHg 54%
    12:00 -2°C° 0 mm 2 mps 572 mmHg 62%
    13:00 -1°C° 0 mm 3 mps 572 mmHg 66%
    14:00 -2°C° 0 mm 2 mps 571 mmHg 63%
    15:00 -4°C° 0 mm 2 mps 570 mmHg 61%
    16:00 -5°C° 0 mm 2 mps 569 mmHg 58%
    17:00 -6°C° 0 mm 2 mps 568 mmHg 58%
    18:00 -7°C° 0 mm 2 mps 568 mmHg 57%
    19:00 -9°C° 0 mm 3 mps 567 mmHg 57%
    20:00 -9°C° 0 mm 3 mps 567 mmHg 58%
    21:00 -9°C° 0 mm 3 mps 566 mmHg 59%
    22:00 -9°C° 0 mm 3 mps 566 mmHg 61%
    23:00 -8°C° 0 mm 2 mps 566 mmHg 63%

    Tomorrow, 9 December, Monday

    Time Temperature Precipitation Wind Pressure Humidity
    00:00 -8°C° 0 mm 2 mps 566 mmHg 65%
    01:00 -8°C° 0 mm 2 mps 566 mmHg 67%
    02:00 -7°C° 0.1 mm 1 mps 565 mmHg 72%
    03:00 -7°C° 0.1 mm 1 mps 565 mmHg 76%
    04:00 -7°C° 0.1 mm 1 mps 564 mmHg 81%
    05:00 -8°C° 0.8 mm 1 mps 564 mmHg 84%
    06:00 -9°C° 0.8 mm 1 mps 564 mmHg 87%
    07:00 -9°C° 0.8 mm 1 mps 563 mmHg 90%
    08:00 -9°C° 0.3 mm 1 mps 563 mmHg 91%
    09:00 -8°C° 0.3 mm 1 mps 564 mmHg 91%
    10:00 -7°C° 0.3 mm 1 mps 564 mmHg 92%
    11:00 -6°C° 0 mm 1 mps 564 mmHg 87%
    12:00 -4°C° 0 mm 1 mps 564 mmHg 82%
    13:00 -3°C° 0 mm 1 mps 564 mmHg 78%
    14:00 -4°C° 0.1 mm 1 mps 563 mmHg 79%
    15:00 -6°C° 0.1 mm 1 mps 563 mmHg 79%
    16:00 -7°C° 0.1 mm 1 mps 562 mmHg 80%
    17:00 -9°C° 0.5 mm 2 mps 562 mmHg 83%
    18:00 -10°C° 0.5 mm 2 mps 563 mmHg 85%
    19:00 -10°C° 0.5 mm 2 mps 563 mmHg 88%
    20:00 -10°C° 0.8 mm 2 mps 563 mmHg 90%
    21:00 -12°C° 0.8 mm 2 mps 564 mmHg 93%
    22:00 -12°C° 0.8 mm 2 mps 565 mmHg 96%
    23:00 -12°C° 0.7 mm 2 mps 565 mmHg 96%

    Day after tomorrow, 10 December, Tuesday

    Time Temperature Precipitation Wind Pressure Humidity
    00:00 -10°C° 0.7 mm 2 mps 566 mmHg 96%
    01:00 -10°C° 0.7 mm 2 mps 567 mmHg 96%
    02:00 -10°C° 1 mm 2 mps 567 mmHg 96%
    03:00 -10°C° 1 mm 2 mps 568 mmHg 96%
    04:00 -12°C° 1 mm 3 mps 568 mmHg 96%
    05:00 -13°C° 0.5 mm 3 mps 569 mmHg 96%
    06:00 -14°C° 0.5 mm 3 mps 569 mmHg 96%
    07:00 -15°C° 0.5 mm 3 mps 569 mmHg 96%
    08:00 -14°C° 0.1 mm 2 mps 570 mmHg 95%
    09:00 -14°C° 0.1 mm 2 mps 570 mmHg 95%
    10:00 -14°C° 0.1 mm 2 mps 571 mmHg 95%
    11:00 -13°C° 0 mm 2 mps 571 mmHg 90%
    12:00 -13°C° 0 mm 2 mps 571 mmHg 86%
    13:00 -13°C° 0 mm 2 mps 571 mmHg 82%
    14:00 -14°C° 0 mm 2 mps 570 mmHg 80%
    15:00 -13°C° 0 mm 1 mps 569 mmHg 78%
    16:00 -15°C° 0 mm 1 mps 568 mmHg 76%
    17:00 -15°C° 0 mm 1 mps 568 mmHg 62%
    18:00 -15°C° 0 mm 1 mps 568 mmHg 47%
    19:00 -17°C° 0 mm 2 mps 568 mmHg 33%
    20:00 -16°C° 0 mm 2 mps 568 mmHg 29%
    21:00 -14°C° 0 mm 1 mps 569 mmHg 26%
    22:00 -13°C° 0 mm 1 mps 569 mmHg 22%
    23:00 -12°C° 0 mm 1 mps 569 mmHg 22%

    11 December, Wednesday

    Time Temperature Precipitation Wind Pressure Humidity
    00:00 -12°C° 0 mm 1 mps 569 mmHg 22%
    01:00 -11°C° 0 mm 1 mps 569 mmHg 21%
    02:00 -11°C° 0 mm 1 mps 569 mmHg 22%
    03:00 -10°C° 0 mm 1 mps 568 mmHg 22%
    04:00 -9°C° 0 mm 1 mps 568 mmHg 22%
    05:00 -9°C° 0 mm 1 mps 568 mmHg 23%
    06:00 -9°C° 0 mm 1 mps 568 mmHg 24%
    07:00 -8°C° 0 mm 1 mps 568 mmHg 24%
    08:00 -7°C° 0 mm 1 mps 568 mmHg 31%
    09:00 -4°C° 0 mm 1 mps 569 mmHg 38%
    10:00 -3°C° 0 mm 1 mps 569 mmHg 45%
    11:00 -2°C° 0 mm 1 mps 569 mmHg 52%
    12:00 -1°C° 0 mm 1 mps 569 mmHg 59%
    13:00 0°C° 0 mm 1 mps 569 mmHg 67%
    14:00 -1°C° 0 mm 1 mps 568 mmHg 62%
    15:00 -2°C° 0 mm 1 mps 567 mmHg 58%
    16:00 -4°C° 0 mm 0 mps 566 mmHg 53%
    17:00 -4°C° 0 mm 1 mps 566 mmHg 56%
    18:00 -4°C° 0 mm 1 mps 565 mmHg 59%
    19:00 -6°C° 0 mm 1 mps 565 mmHg 63%
    20:00 -6°C° 0.1 mm 1 mps 565 mmHg 68%
    21:00 -7°C° 0.1 mm 1 mps 565 mmHg 73%
    22:00 -8°C° 0.1 mm 1 mps 565 mmHg 78%
    23:00 -8°C° 0.2 mm 1 mps 564 mmHg 84%

    12 December, Thursday

    Time Temperature Precipitation Wind Pressure Humidity
    00:00 -9°C° 0.2 mm 1 mps 563 mmHg 89%
    01:00 -9°C° 0.2 mm 0 mps 563 mmHg 94%
    02:00 -9°C° 0.5 mm 0 mps 563 mmHg 94%
    03:00 -10°C° 0.5 mm 1 mps 562 mmHg 94%
    04:00 -10°C° 0.5 mm 1 mps 562 mmHg 95%
    05:00 -10°C° 1.1 mm 1 mps 562 mmHg 95%
    06:00 -12°C° 1.1 mm 2 mps 563 mmHg 95%
    07:00 -13°C° 1.1 mm 3 mps 563 mmHg 95%
    08:00 -12°C° 0.3 mm 2 mps 564 mmHg 93%
    09:00 -13°C° 0.3 mm 2 mps 564 mmHg 91%
    10:00 -11°C° 0.3 mm 1 mps 564 mmHg 89%
    11:00 -10°C° 0.1 mm 1 mps 564 mmHg 85%
    12:00 -10°C° 0.1 mm 1 mps 564 mmHg 82%
    13:00 -12°C° 0.1 mm 2 mps 564 mmHg 78%
    14:00 -12°C° 0 mm 1 mps 563 mmHg 82%
    15:00 -13°C° 0 mm 1 mps 562 mmHg 85%
    16:00 -15°C° 0 mm 1 mps 561 mmHg 88%
    17:00 -15°C° 0 mm 1 mps 561 mmHg 83%
    18:00 -18°C° 0 mm 2 mps 561 mmHg 78%
    19:00 -19°C° 0 mm 2 mps 560 mmHg 73%
    20:00 -21°C° 0 mm 3 mps 560 mmHg 69%
    21:00 -19°C° 0 mm 3 mps 560 mmHg 65%
    22:00 -20°C° 0 mm 4 mps 559 mmHg 60%
    23:00 -19°C° 0 mm 4 mps 559 mmHg 60%

    13 December, Friday

    Time Temperature Precipitation Wind Pressure Humidity
    00:00 -18°C° 0 mm 4 mps 559 mmHg 61%
    01:00 -19°C° 0 mm 5 mps 559 mmHg 61%
    02:00 -18°C° 0.2 mm 5 mps 559 mmHg 67%
    03:00 -18°C° 0.2 mm 5 mps 558 mmHg 73%
    04:00 -18°C° 0.2 mm 5 mps 557 mmHg 80%
    05:00 -18°C° 0.6 mm 5 mps 557 mmHg 84%
    06:00 -17°C° 0.6 mm 5 mps 557 mmHg 87%
    07:00 -16°C° 0.6 mm 4 mps 557 mmHg 91%
    08:00 -15°C° 1.4 mm 4 mps 557 mmHg 92%
    09:00 -14°C° 1.4 mm 4 mps 557 mmHg 92%
    10:00 -14°C° 1.4 mm 4 mps 558 mmHg 92%
    11:00 -10°C° 1.4 mm 3 mps 558 mmHg 93%
    12:00 -9°C° 1.4 mm 3 mps 558 mmHg 93%
    13:00 -8°C° 1.4 mm 3 mps 559 mmHg 94%
    14:00 -8°C° 1.6 mm 3 mps 559 mmHg 95%
    15:00 -8°C° 1.6 mm 3 mps 559 mmHg 95%
    16:00 -8°C° 1.6 mm 3 mps 559 mmHg 96%
    17:00 -9°C° 1 mm 3 mps 559 mmHg 96%
    18:00 -9°C° 1 mm 3 mps 559 mmHg 96%
    19:00 -10°C° 1 mm 3 mps 559 mmHg 96%
    20:00 -9°C° 1.4 mm 2 mps 560 mmHg 96%
    21:00 -9°C° 1.4 mm 2 mps 560 mmHg 96%
    22:00 -9°C° 1.4 mm 2 mps 560 mmHg 96%
    23:00 -8°C° 2.7 mm 2 mps 560 mmHg 96%
    Show more